This is the latest recevied weather packets stored in our database for station/object KG4ZVW. If no packets are shown the sender has not sent any weather packets the latest 1 day(s).
| Time | Temp. | Humidity | Pressure | Rain* | Wind** | Luminosity | Snow |
|---|---|---|---|---|---|---|---|
| 1777986800 | 26.11° C | 68% | 1015.5 hPa | 0 mm | 1.34 m/s, 78° | 517 W/m² | - |
| 1777986517 | 25.56° C | 69% | 1015.5 hPa | 0 mm | 1.79 m/s, 82° | 485 W/m² | - |
| 1777986213 | 25.56° C | 70% | 1015.5 hPa | 0 mm | 2.24 m/s, 84° | 468 W/m² | - |
| 1777985912 | 25.56° C | 70% | 1015.5 hPa | 0 mm | 2.24 m/s, 47° | 487 W/m² | - |
| 1777985605 | 25.56° C | 70% | 1015.4 hPa | 0 mm | 3.13 m/s, 78° | 227 W/m² | - |
| 1777985321 | 25.56° C | 69% | 1015.4 hPa | 0 mm | 2.24 m/s, 140° | 396 W/m² | - |
| 1777985016 | 25° C | 70% | 1015.4 hPa | 0 mm | 2.68 m/s, 132° | 452 W/m² | - |
| 1777984711 | 25° C | 71% | 1015.3 hPa | 0 mm | 2.68 m/s, 90° | 429 W/m² | - |
| 1777984406 | 24.44° C | 74% | 1015.3 hPa | 0 mm | 1.34 m/s, 54° | 367 W/m² | - |
| 1777984117 | 24.44° C | 73% | 1015.3 hPa | 0 mm | 2.24 m/s, 93° | 320 W/m² | - |
| 1777983812 | 23.89° C | 76% | 1015.5 hPa | 0 mm | 1.79 m/s, 67° | 281 W/m² | - |
| 1777983507 | 23.89° C | 78% | 1015.5 hPa | 0 mm | 0.89 m/s, 78° | 274 W/m² | - |
| 1777983207 | 23.33° C | 80% | 1015.5 hPa | 0 mm | 0.89 m/s, 67° | 243 W/m² | - |
| 1777982920 | 23.33° C | 80% | 1015.5 hPa | 0 mm | 0.89 m/s, 85° | 246 W/m² | - |
| 1777982616 | 22.78° C | 81% | 1015.5 hPa | 0 mm | 0.45 m/s, 69° | 232 W/m² | - |
| 1777982310 | 22.22° C | 83% | 1015.5 hPa | 0 mm | 0.45 m/s, 69° | 195 W/m² | - |
| 1777982005 | 21.67° C | 84% | 1015.1 hPa | 0 mm | 0.89 m/s, 73° | 178 W/m² | - |
| 1777981721 | 21.67° C | 85% | 1015.1 hPa | 0 mm | 0 m/s | 162 W/m² | - |
| 1777981416 | 21.11° C | 85% | 1015.1 hPa | 0 mm | 0 m/s | 142 W/m² | - |
| 1777981111 | 21.11° C | 86% | 1014.9 hPa | 0 mm | 0 m/s | 132 W/m² | - |
| 1777980807 | 20.56° C | 86% | 1014.9 hPa | 0 mm | 0 m/s | 120 W/m² | - |
| 1777980503 | 20.56° C | 86% | 1014.9 hPa | 0 mm | 0 m/s | 104 W/m² | - |
| 1777980219 | 20.56° C | 86% | 1014.9 hPa | 0 mm | 0 m/s | 90 W/m² | - |
| 1777979913 | 20° C | 85% | 1014.9 hPa | 0 mm | 0 m/s | 77 W/m² | - |
| 1777979609 | 20° C | 85% | 1014.9 hPa | 0 mm | 0 m/s | 63 W/m² | - |
* Rain latest hour (hover to see other rain measurements)
** Current wind speed in m/s (hover to see current wind gust speed)